This is the latest recevied weather packets stored in our database for station/object W4WYD-2. If no packets are shown the sender has not sent any weather packets the latest 10 day(s).
| Time | Temp. | Humidity | Pressure | Rain* | Wind** | Luminosity | Snow |
|---|---|---|---|---|---|---|---|
| 1787791943 | 22.78° C | 96% | 1015.3 hPa | 0 mm | - | 0 W/m² | - |
| 1787791642 | 22.78° C | 96% | 1015.2 hPa | 0 mm | - | 0 W/m² | - |
| 1787791338 | 23.33° C | 96% | 1015.2 hPa | 0 mm | - | 0 W/m² | - |
| 1787791033 | 23.33° C | 96% | 1015 hPa | 0 mm | - | 1 W/m² | - |
| 1787790730 | 23.33° C | 95% | 1015.1 hPa | 0 mm | - | 1 W/m² | - |
| 1787790423 | 23.33° C | 95% | 1015 hPa | 0 mm | - | 2 W/m² | - |
| 1787790118 | 23.89° C | 95% | 1014.7 hPa | 0 mm | - | 5 W/m² | - |
| 1787789814 | 23.89° C | 94% | 1014.9 hPa | 0 mm | - | 9 W/m² | - |
| 1787789509 | 23.89° C | 94% | 1014.9 hPa | 0 mm | - | 12 W/m² | - |
| 1787789208 | 23.89° C | 94% | 1015 hPa | 0 mm | - | 14 W/m² | - |
| 1787788903 | 23.89° C | 94% | 1014.9 hPa | 0 mm | - | 18 W/m² | - |
| 1787788601 | 24.44° C | 93% | 1015.1 hPa | 0 mm | - | 22 W/m² | - |
| 1787788295 | 24.44° C | 92% | 1015.1 hPa | 0 mm | - | 25 W/m² | - |
| 1787787991 | 25° C | 91% | 1015 hPa | 0 mm | - | 26 W/m² | - |
| 1787787691 | 25° C | 90% | 1015 hPa | 0 mm | - | 33 W/m² | - |
| 1787787390 | 25.56° C | 89% | 1015 hPa | 0 mm | - | 41 W/m² | - |
| 1787787090 | 25.56° C | 88% | 1015.1 hPa | 0 mm | - | 49 W/m² | - |
| 1787786789 | 25.56° C | 89% | 1015.4 hPa | 0 mm | - | 56 W/m² | - |
| 1787786485 | 25.56° C | 89% | 1015.5 hPa | 0 mm | - | 58 W/m² | - |
| 1787786180 | 26.11° C | 85% | 1015.1 hPa | 0 mm | - | 57 W/m² | - |
| 1787785876 | 27.22° C | 82% | 1015.1 hPa | 0 mm | - | 56 W/m² | - |
| 1787785571 | 27.22° C | 79% | 1015.2 hPa | 0 mm | - | 61 W/m² | - |
| 1787785266 | 27.78° C | 73% | 1015.3 hPa | 0 mm | - | 66 W/m² | - |
| 1787784965 | 28.89° C | 73% | 1015.3 hPa | 0 mm | - | 81 W/m² | - |
| 1787784664 | 28.89° C | 74% | 1015 hPa | 0 mm | - | 110 W/m² | - |
* Rain latest hour (hover to see other rain measurements)
** Current wind speed in m/s (hover to see current wind gust speed)